Location: *
(37.5724°S, 58.0067°E)
Time: 10:40:36
(UTC+00:00)

Genesis I - Pass Details

Date: 24 January 2021
Orbit: 488 x 532 km, 64.5° (Epoch: 05 March)

Event Time Altitude Azimuth Distance (km) Brightness Sun altitude
Exits shadow 21:39:27 23° 182° (S) 1,150 5.5 -30.5°
Drops below altitude 10° 21:41:17 10° 165° (SSE) 1,778 6.8 -30.3°
Sets 21:43:35 0° 156° (SSE) 2,665 8.0 -30.1°
